[[{"header":{"parameterUnit":"m.s-1","parameterCategory":2,"la1":30.2991,"la2":30.254,"lo1":-89.0895,"lo2":-89.0444,"dy":0.0017,"dx":0.0017,"nx":28,"ny":28,"refTime":"2026-02-13T09:00:00:Z","depth":"0","parameterNumber":2,"parameterNumberName":"U-component_of_CURRENTS"},"data":[0,0,0,0,0,0,0,0,0,0,0,0,0,0,0,0,0,0,0,0,0,0,0,0,0,0,0,0,0,0,0,0,0,0,0,0,0,0,0,0,0,0,0,0,0,0,0,0,0,0,0,0,0,0,0,0,0,0,0.1344,0.1344,0,0.1372,0.1372,0.1372,0.1348,0.1347,0.1347,0.1346,0.1324,0.1324,0.1324,0,0,0,0,0,0,0,0,0,0,0,0,0,0.1277,0.1279,0.1344,0.1344,0.1345,0.1371,0.1372,0.1372,0.1348,0.1347,0.1346,0.1345,0.1324,0.1324,0.1324,0,0,0,0,0,0,0,0,0,0,0,0,0,0.1305,0.1279,0.1344,0.1337,0.1337,0.1371,0.1372,0.1372,0.1349,0.1347,0.1346,0.1345,0.1323,0.1324,0.1324,0.1352,0,0,0.1325,0.1325,0,0,0,0,0,0,0,0,0.1303,0.1307,0.1338,0.1338,0.1338,0.1356,0.134,0.1363,0.1349,0.1343,0.1346,0.1344,0.1332,0.1331,0.1338,0.1351,0.135,0.1325,0.1325,0.1325,0.1326,0,0,0,0,0,0,0,0.1301,0.1306,0.1353,0.1338,0.1338,0.1335,0.1337,0.1345,0.1342,0.1343,0.1342,0.1348,0.1331,0.1338,0.1337,0.135,0.1325,0.1325,0.1326,0.1326,0.1393,0.1395,0,0,0,0,0,0,0.1302,0.1304,0.1353,0.1354,0.1318,0.1338,0.134,0.1351,0.1343,0.1342,0.1349,0.1346,0.1338,0.1337,0.1336,0.1376,0.1325,0.1326,0.1326,0.1392,0.1393,0.1395,0,0,0,0,0,0,0.13,0.1306,0.1352,0.133,0.1336,0.134,0.1352,0.1352,0.1362,0.1348,0.1345,0.1359,0.1337,0.1336,0.1354,0.1374,0.1326,0.1326,0.139,0.1392,0.1394,0.1449,0,0,0,0,0,0,0.1298,0.1306,0.1314,0.1331,0.1337,0.138,0.1354,0.1353,0.1368,0.1365,0.1357,0.1353,0.1336,0.1354,0.1355,0.1373,0.1326,0.1388,0.1391,0.1394,0.1445,0.1453,0.146,0,0,0,0,0,0.1296,0.1315,0.1314,0.132,0.1349,0.1382,0.1385,0.1382,0.137,0.1384,0.1379,0.1353,0.1373,0.1356,0.1356,0.1375,0.1386,0.139,0.1393,0.1442,0.1452,0.146,0,0,0,0,0,0,0.1291,0.1315,0.1314,0.1339,0.1362,0.1378,0.1392,0.1392,0.1402,0.1396,0.1377,0.1374,0.1396,0.1386,0.1367,0.1406,0.1375,0.1379,0.1412,0.1421,0.1428,0.1428,0.1327,0,0,0,0,0,0.1295,0.1315,0.1338,0.1359,0.1373,0.1385,0.1397,0.14,0.1411,0.1413,0.1408,0.1406,0.1413,0.1416,0.1419,0.1445,0.1471,0.1458,0.1465,0.1471,0.1473,0.1507,0.1517,0.1407,0.1407,0.1407,0,0,0.1297,0.1315,0.1324,0.136,0.1375,0.1406,0.1389,0.1418,0.1439,0.141,0.1436,0.1433,0.1427,0.1451,0.146,0.1443,0.1534,0.1476,0.1481,0.1479,0.1512,0.1523,0.1532,0.1409,0.1409,0.1409,0,0,0.1317,0.1332,0.1356,0.1381,0.1413,0.1426,0.1438,0.1463,0.1468,0.1499,0.1481,0.1491,0.1506,0.1503,0.1504,0.1557,0.1571,0.1561,0.1596,0.163,0.1639,0.1647,0.1767,0.1785,0.1564,0.1564,0.1564,0,0.1316,0.1352,0.1369,0.1403,0.1424,0.1438,0.1471,0.1489,0.1515,0.1524,0.1512,0.1539,0.1529,0.1556,0.1572,0.1571,0.1623,0.1561,0.1639,0.1647,0.1654,0.1775,0.1794,0.1567,0.1567,0.1567,0.1566,0,0.1356,0.1386,0.1407,0.1452,0.1479,0.1513,0.1541,0.1565,0.1573,0.1584,0.1613,0.1609,0.1622,0.1624,0.1613,0.1661,0.1699,0.1644,0.1614,0.1668,0.1793,0.1812,0.1572,0.1571,0.157,0.1569,0,0,0.1345,0.1418,0.1425,0.1451,0.1507,0.1532,0.1577,0.1617,0.164,0.1662,0.1694,0.1704,0.1699,0.17,0.1691,0.1715,0.1831,0.1708,0.1708,0.1826,0.1985,0.2101,0.2134,0.1788,0.1789,0.1791,0.2079,0,0.1368,0.1433,0.1466,0.1525,0.1559,0.1591,0.163,0.1666,0.1689,0.1727,0.1731,0.1754,0.1731,0.1738,0.1765,0.1802,0.1872,0.1763,0.1916,0.1922,0.2014,0.2154,0.2142,0.2403,0.2097,0.21,0.2103,0,0.1393,0.1434,0.1492,0.1558,0.1575,0.1609,0.1666,0.1704,0.1757,0.1775,0.1806,0.1814,0.1873,0.1823,0.1954,0.1891,0.1954,0.1984,0.1995,0.2087,0.2071,0.2285,0.2449,0.2375,0.2132,0.2129,0.2127,0,0.137,0.145,0.1493,0.1518,0.1595,0.1619,0.1657,0.1711,0.1755,0.1805,0.1855,0.1901,0.1962,0.2008,0.2113,0.2033,0.2281,0.2169,0.2352,0.2365,0.2377,0.2386,0.2476,0.2271,0.2271,0.227,0.2269,0,0.138,0.1415,0.1484,0.1507,0.1552,0.1608,0.1658,0.1696,0.1778,0.1839,0.1878,0.196,0.2005,0.215,0.2188,0.2396,0.2361,0.2416,0.2448,0.2407,0.2415,0.2364,0.2294,0.2281,0.2278,0.2276,0.2274,0,0.135,0.14,0.1447,0.1521,0.1542,0.1569,0.1663,0.1704,0.179,0.1881,0.1908,0.206,0.2258,0.2373,0.251,0.2545,0.2635,0.2749,0.2758,0.2785,0.2825,0.276,0.282,0.2712,0.2979,0.2984,0.2988,0,0.1342,0.1365,0.1435,0.146,0.1491,0.1546,0.1585,0.1681,0.1738,0.1942,0.1993,0.2239,0.2418,0.2756,0.2856,0.3049,0.2871,0.3127,0.2934,0.2891,0.2839,0.2667,0.2552,0.301,0.3014,0.3017,0.3019,0,0.1318,0.1339,0.1377,0.1427,0.1466,0.1524,0.1594,0.1657,0.1785,0.1921,0.2147,0.2325,0.2681,0.2901,0.3179,0.3251,0.2992,0.3196,0.311,0.287,0.2724,0.2614,0.2812,0.3047,0.3044,0.3042,0.304,0.3039,0.1288,0.1305,0.1354,0.1407,0.1447,0.1514,0.1568,0.1671,0.1819,0.2027,0.2203,0.2479,0.2825,0.3224,0.3287,0.3395,0.3229,0.3299,0.324,0.3081,0.2912,0.3237,0.3509,0.3509,0.3509,0.3509,0.3509,0,0.127,0.1302,0.134,0.1409,0.1455,0.1489,0.1586,0.1654,0.1824,0.2046,0.2271,0.2682,0.2993,0.3227,0.3475,0.3416,0.3194,0.3343,0.3038,0.2924,0.3214,0.3147,0.3399,0.3399,0.3399,0.3399,0.3399,0.3399,0.1264,0.1301,0.1338,0.1415,0.1464,0.1532,0.1594,0.169,0.1841,0.2133,0.2369,0.257,0.2974,0.3389,0.3474,0.3405,0.3057,0.3051,0.2905,0.307,0.3056,0.3043,0.2961,0.317,0.317,0.2501,0.2496,0.2492]},{"header":{"parameterUnit":"m.s-1","parameterCategory":2,"la1":30.2991,"la2":30.254,"lo1":-89.0895,"lo2":-89.0444,"dy":0.0017,"dx":0.0017,"nx":28,"ny":28,"refTime":"2026-02-13T09:00:00:Z","depth":"0","parameterNumber":3,"parameterNumberName":"V-component_of_CURRENTS"},"data":[0,0,0,0,0,0,0,0,0,0,0,0,0,0,0,0,0,0,0,0,0,0,0,0,0,0,0,0,0,0,0,0,0,0,0,0,0,0,0,0,0,0,0,0,0,0,0,0,0,0,0,0,0,0,0,0,0,0,-0.0338,-0.0339,0,-0.0375,-0.0375,-0.0376,-0.0398,-0.0398,-0.0398,-0.0398,-0.0437,-0.0438,-0.0439,0,0,0,0,0,0,0,0,0,0,0,0,0,-0.0308,-0.0308,-0.0338,-0.0339,-0.0339,-0.0375,-0.0375,-0.0376,-0.0398,-0.0398,-0.0398,-0.0398,-0.0436,-0.0438,-0.0439,0,0,0,0,0,0,0,0,0,0,0,0,0,-0.0331,-0.0308,-0.0338,-0.0353,-0.0355,-0.0375,-0.0375,-0.0376,-0.0398,-0.0398,-0.0398,-0.0398,-0.0436,-0.0437,-0.0439,-0.0449,0,0,-0.0444,-0.0444,0,0,0,0,0,0,0,0,-0.033,-0.0333,-0.0351,-0.0352,-0.0354,-0.0381,-0.0379,-0.04,-0.0398,-0.0383,-0.0398,-0.0398,-0.0417,-0.042,-0.0429,-0.0451,-0.0453,-0.0444,-0.0445,-0.0446,-0.0446,0,0,0,0,0,0,0,-0.0328,-0.0331,-0.0354,-0.0351,-0.0353,-0.0365,-0.0368,-0.0383,-0.0401,-0.0384,-0.0386,-0.0388,-0.0418,-0.0428,-0.043,-0.0453,-0.0444,-0.0445,-0.0446,-0.0447,-0.0507,-0.0508,0,0,0,0,0,0,-0.032,-0.033,-0.0353,-0.0355,-0.034,-0.0365,-0.0369,-0.0373,-0.0401,-0.0405,-0.0388,-0.0389,-0.0425,-0.0428,-0.0432,-0.0452,-0.0446,-0.0447,-0.0448,-0.0507,-0.0507,-0.0508,0,0,0,0,0,0,-0.0319,-0.0322,-0.0351,-0.0342,-0.0346,-0.0366,-0.037,-0.0374,-0.0382,-0.0403,-0.0407,-0.0391,-0.0425,-0.0429,-0.045,-0.0453,-0.0448,-0.0449,-0.0506,-0.0507,-0.0508,-0.0488,0,0,0,0,0,0,-0.0318,-0.0322,-0.0322,-0.0342,-0.0347,-0.0357,-0.037,-0.0375,-0.0383,-0.0384,-0.0407,-0.0411,-0.0425,-0.0447,-0.0451,-0.0455,-0.045,-0.0505,-0.0506,-0.0507,-0.0487,-0.0488,-0.0488,0,0,0,0,0,-0.0317,-0.0311,-0.0321,-0.0324,-0.0346,-0.0357,-0.036,-0.0375,-0.0383,-0.0383,-0.0406,-0.041,-0.0458,-0.0449,-0.0454,-0.0458,-0.0504,-0.0506,-0.0507,-0.0487,-0.0488,-0.0488,0,0,0,0,0,0,-0.029,-0.0313,-0.0325,-0.0324,-0.0339,-0.036,-0.0359,-0.0373,-0.0392,-0.0393,-0.0417,-0.0422,-0.0443,-0.0455,-0.0445,-0.0481,-0.0483,-0.0485,-0.0466,-0.0467,-0.0467,-0.0464,-0.0452,0,0,0,0,0,-0.0287,-0.0292,-0.0313,-0.0312,-0.0318,-0.034,-0.0346,-0.0358,-0.0376,-0.0385,-0.0404,-0.0428,-0.0453,-0.0463,-0.0484,-0.05,-0.0504,-0.0508,-0.0508,-0.0508,-0.0511,-0.0537,-0.054,-0.0513,-0.0513,-0.0513,0,0,-0.0274,-0.0288,-0.029,-0.0308,-0.032,-0.0326,-0.0344,-0.0349,-0.0358,-0.0386,-0.0402,-0.0428,-0.0459,-0.048,-0.049,-0.049,-0.0512,-0.051,-0.051,-0.0512,-0.0539,-0.0542,-0.0544,-0.0514,-0.0514,-0.0514,0,0,-0.0251,-0.0266,-0.0263,-0.0276,-0.0293,-0.0309,-0.031,-0.0333,-0.0347,-0.0367,-0.0395,-0.0425,-0.0453,-0.0482,-0.0499,-0.0515,-0.0514,-0.052,-0.0517,-0.0543,-0.0545,-0.0547,-0.0524,-0.0524,-0.0519,-0.0519,-0.0519,0,-0.0233,-0.0239,-0.0262,-0.0264,-0.0271,-0.0301,-0.0298,-0.0318,-0.0346,-0.0362,-0.0367,-0.0434,-0.0456,-0.0497,-0.0505,-0.0515,-0.0513,-0.0509,-0.0542,-0.0544,-0.0546,-0.0523,-0.0524,-0.0518,-0.0518,-0.0518,-0.0518,0,-0.0212,-0.0217,-0.0214,-0.0232,-0.0243,-0.0244,-0.0274,-0.029,-0.0312,-0.0338,-0.038,-0.0421,-0.046,-0.0476,-0.0495,-0.0529,-0.0515,-0.0537,-0.0536,-0.0548,-0.0522,-0.0523,-0.0517,-0.0517,-0.0517,-0.0518,0,0,-0.0169,-0.0195,-0.0193,-0.0199,-0.0227,-0.0231,-0.025,-0.0279,-0.0288,-0.0334,-0.0349,-0.0417,-0.0444,-0.0468,-0.0501,-0.053,-0.0536,-0.0538,-0.054,-0.0506,-0.0556,-0.0478,-0.0471,-0.0565,-0.0566,-0.0567,-0.0519,0,-0.0144,-0.014,-0.0163,-0.0161,-0.0162,-0.0199,-0.0213,-0.0245,-0.0273,-0.0294,-0.0359,-0.0385,-0.044,-0.045,-0.0495,-0.0522,-0.0543,-0.0545,-0.0559,-0.0558,-0.0481,-0.0472,-0.0454,-0.0405,-0.052,-0.052,-0.052,0,-0.0117,-0.012,-0.0112,-0.0132,-0.0135,-0.014,-0.0166,-0.0183,-0.0229,-0.025,-0.0304,-0.0341,-0.0394,-0.0432,-0.0502,-0.0498,-0.0529,-0.0554,-0.0554,-0.0492,-0.0483,-0.0421,-0.0403,-0.0615,-0.0522,-0.0522,-0.0521,0,-0.0076,-0.0084,-0.0078,-0.0084,-0.011,-0.0114,-0.0129,-0.0169,-0.0163,-0.0216,-0.0195,-0.0296,-0.0289,-0.0386,-0.0424,-0.047,-0.0467,-0.0537,-0.0497,-0.049,-0.0483,-0.0473,-0.0667,-0.0591,-0.0591,-0.0591,-0.0592,0,-0.0045,-0.0039,-0.0057,-0.0054,-0.0044,-0.0076,-0.0067,-0.0097,-0.0102,-0.0059,-0.0163,-0.0113,-0.0276,-0.0285,-0.0384,-0.0403,-0.0433,-0.0485,-0.0479,-0.047,-0.0461,-0.0651,-0.0768,-0.059,-0.059,-0.059,-0.0591,0,-0.0004,-0.0018,-0.0009,-0.0024,-0.0025,-0.0017,-0.0005,0.0012,-0.0001,0.0064,0.0066,0.0044,0.0047,-0.008,-0.0176,-0.0291,-0.0452,-0.0359,-0.0304,-0.0293,-0.0496,-0.061,-0.0746,-0.084,-0.0347,-0.0344,-0.0343,0,0.0015,0.0024,0.0024,0.0042,0.0039,0.0051,0.0071,0.0057,0.0108,0.0197,0.0262,0.0289,0.0381,0.0277,0.0058,-0.0086,-0.0308,-0.0199,-0.0311,-0.0494,-0.0619,-0.0714,-0.0793,-0.0284,-0.0282,-0.028,-0.0279,0,0.0055,0.0054,0.0064,0.011,0.0136,0.0173,0.022,0.0295,0.0333,0.0448,0.0646,0.0743,0.0648,0.0544,0.0311,0.0158,-0.0358,-0.0166,-0.0401,-0.0616,-0.069,-0.078,-0.0301,-0.0263,-0.0265,-0.0266,-0.0267,-0.0268,0.009,0.0112,0.0139,0.0194,0.0234,0.0342,0.0446,0.0547,0.072,0.0969,0.0994,0.1233,0.0951,0.066,0.0378,-0.0167,-0.0202,-0.0361,-0.0485,-0.0565,-0.0671,-0.0118,-0.0048,-0.0048,-0.0048,-0.0049,-0.0049,0,0.0152,0.0186,0.0232,0.0326,0.0434,0.0424,0.0588,0.0749,0.1047,0.1265,0.1496,0.157,0.1181,0.0697,-0.0028,-0.0431,-0.0649,-0.0675,-0.0879,-0.0948,-0.0496,-0.0512,-0.0483,-0.0483,-0.0483,-0.0483,-0.0483,-0.0482,0.0188,0.0261,0.03,0.0507,0.0595,0.0799,0.0937,0.1171,0.1383,0.1767,0.1977,0.2098,0.1733,0.0349,-0.0638,-0.0861,-0.1222,-0.1235,-0.1418,-0.1193,-0.1177,-0.1162,-0.1209,-0.1327,-0.1328,-0.1846,-0.1851,-0.1855]}],[{"header":{"parameterUnit":"m.s-1","parameterCategory":2,"la1":30.2991,"la2":30.254,"lo1":-89.0895,"lo2":-89.0444,"dy":0.0017,"dx":0.0017,"nx":28,"ny":28,"refTime":"2026-02-13T09:00:00:Z","depth":"2","parameterNumber":2,"parameterNumberName":"U-component_of_CURRENTS"},"data":[0,0,0,0,0,0,0,0,0,0,0,0,0,0,0,0,0,0,0,0,0,0,0,0,0,0,0,0,0,0,0,0,0,0,0,0,0,0,0,0,0,0,0,0,0,0,0,0,0,0,0,0,0,0,0,0,0,0,0.1269,0.1269,0,0.1299,0.1299,0.1299,0.1316,0.1317,0.1317,0.1317,0.1336,0.1337,0.1337,0,0,0,0,0,0,0,0,0,0,0,0,0,0.1201,0.1202,0.1269,0.1269,0.127,0.1299,0.1299,0.13,0.1316,0.1317,0.1317,0.1317,0.1336,0.1337,0.1337,0,0,0,0,0,0,0,0,0,0,0,0,0,0.123,0.1203,0.1269,0.1283,0.1284,0.1299,0.1299,0.13,0.1316,0.1317,0.1317,0.1317,0.1336,0.1337,0.1337,0.1335,0,0,0.1339,0.1339,0,0,0,0,0,0,0,0,0.1228,0.1232,0.128,0.1282,0.1284,0.1306,0.1283,0.1311,0.1316,0.1303,0.1317,0.1317,0.1326,0.1327,0.133,0.1335,0.1336,0.1339,0.1339,0.1339,0.1339,0,0,0,0,0,0,0,0.1226,0.1231,0.1279,0.1281,0.1283,0.1279,0.1284,0.1288,0.1311,0.1304,0.1306,0.1311,0.1326,0.133,0.1331,0.1337,0.1339,0.1339,0.1339,0.134,0.1398,0.14,0,0,0,0,0,0,0.1226,0.1229,0.1278,0.128,0.1258,0.1281,0.1285,0.1297,0.1311,0.1314,0.1311,0.1312,0.1329,0.133,0.1332,0.1385,0.1339,0.134,0.134,0.1397,0.1399,0.14,0,0,0,0,0,0,0.1225,0.1231,0.1277,0.1256,0.1262,0.1282,0.1294,0.1298,0.1309,0.1317,0.1319,0.132,0.1329,0.1331,0.1362,0.1384,0.134,0.134,0.1396,0.1398,0.1399,0.1457,0,0,0,0,0,0,0.1223,0.123,0.1239,0.1256,0.1263,0.1301,0.1294,0.1298,0.1312,0.1314,0.1326,0.1327,0.1329,0.1362,0.1363,0.1384,0.1341,0.1394,0.1397,0.1399,0.1453,0.146,0.1466,0,0,0,0,0,0.1221,0.1237,0.1239,0.1245,0.1274,0.1302,0.1306,0.1319,0.1312,0.1327,0.1342,0.1327,0.1377,0.1363,0.1364,0.1386,0.1393,0.1396,0.1399,0.145,0.1459,0.1466,0,0,0,0,0,0,0.1215,0.1241,0.1243,0.1268,0.1288,0.1306,0.132,0.1322,0.1343,0.1346,0.1346,0.135,0.1385,0.1377,0.1362,0.141,0.1381,0.1384,0.142,0.1428,0.1434,0.1436,0.1341,0,0,0,0,0,0.1216,0.1235,0.1258,0.1278,0.1289,0.1302,0.1313,0.1324,0.1343,0.1352,0.1362,0.1375,0.1395,0.1406,0.142,0.1444,0.1456,0.1458,0.1465,0.147,0.1473,0.1501,0.151,0.1409,0.1409,0.1409,0,0,0.1217,0.1236,0.1245,0.1277,0.1292,0.1324,0.131,0.1336,0.1366,0.1351,0.1394,0.1398,0.1407,0.1444,0.1458,0.1442,0.1514,0.1474,0.1479,0.1478,0.1505,0.1515,0.1523,0.1411,0.1411,0.1411,0,0,0.1233,0.1249,0.1269,0.1292,0.1322,0.1341,0.135,0.1375,0.1392,0.1431,0.143,0.1448,0.1477,0.149,0.1499,0.1546,0.1548,0.155,0.1584,0.1613,0.1621,0.1628,0.1695,0.1707,0.1553,0.1553,0.1553,0,0.123,0.1266,0.128,0.131,0.1338,0.1351,0.1388,0.141,0.1443,0.1459,0.1456,0.1498,0.15,0.1542,0.1562,0.156,0.1591,0.1554,0.1621,0.1629,0.1635,0.1701,0.1714,0.1556,0.1556,0.1555,0.1555,0,0.1264,0.1295,0.1313,0.1361,0.1392,0.1427,0.1464,0.1493,0.1511,0.1526,0.1568,0.1575,0.1597,0.1602,0.1599,0.1647,0.1662,0.1627,0.1601,0.1649,0.1715,0.1728,0.156,0.1559,0.1558,0.1558,0,0,0.1248,0.1321,0.1327,0.136,0.1424,0.1453,0.1512,0.1564,0.1593,0.1621,0.166,0.1687,0.1676,0.1685,0.1678,0.1699,0.1781,0.1689,0.1689,0.1755,0.1884,0.1876,0.1889,0.1761,0.1763,0.1764,0.1926,0,0.127,0.1336,0.1371,0.1442,0.1484,0.1525,0.1576,0.1622,0.1656,0.1697,0.1705,0.1737,0.1714,0.1723,0.1745,0.1768,0.1811,0.1742,0.1827,0.183,0.1815,0.1901,0.1758,0.1887,0.1939,0.1941,0.1942,0,0.129,0.1337,0.1408,0.1489,0.1509,0.155,0.1632,0.1676,0.1732,0.1756,0.1787,0.1796,0.1844,0.1802,0.1887,0.1849,0.1877,0.1891,0.1897,0.1871,0.1843,0.1839,0.1908,0.1963,0.1962,0.196,0.1959,0,0.1278,0.1362,0.1421,0.1451,0.1542,0.1576,0.1621,0.1685,0.1731,0.1788,0.183,0.1872,0.1916,0.1943,0.1986,0.1946,0.2082,0.2025,0.2053,0.2054,0.1938,0.1925,0.2086,0.2086,0.2085,0.2085,0.2085,0,0.1294,0.1341,0.1415,0.1449,0.1505,0.157,0.1629,0.1673,0.1752,0.1804,0.1851,0.1913,0.1952,0.2031,0.2038,0.2111,0.2134,0.2088,0.2095,0.1959,0.1947,0.1997,0.1984,0.2091,0.209,0.2089,0.2088,0,0.1276,0.1331,0.1392,0.1477,0.15,0.1535,0.1629,0.1672,0.1753,0.1829,0.1857,0.1982,0.2083,0.2137,0.2211,0.2199,0.2242,0.2257,0.2119,0.2106,0.2188,0.2176,0.2311,0.2312,0.2313,0.2314,0.2314,0,0.1276,0.1307,0.1386,0.1412,0.1448,0.151,0.1551,0.1647,0.17,0.1864,0.1902,0.2052,0.2126,0.2274,0.2287,0.234,0.2322,0.2226,0.2099,0.2217,0.2211,0.2198,0.2186,0.1993,0.1991,0.1989,0.1988,0,0.1265,0.1286,0.1331,0.1381,0.1424,0.1476,0.1545,0.1596,0.1713,0.1783,0.1913,0.1996,0.2172,0.2179,0.2269,0.2259,0.2198,0.2194,0.2366,0.1947,0.1927,0.1917,0.1914,0.1973,0.1974,0.1975,0.1976,0.1977,0.1237,0.1252,0.1301,0.1345,0.1392,0.1438,0.1464,0.1532,0.1601,0.17,0.1841,0.1918,0.202,0.2085,0.2066,0.2065,0.2186,0.2078,0.2079,0.2083,0.2006,0.1987,0.2033,0.2035,0.2037,0.2038,0.2039,0,0.12,0.1228,0.1266,0.1314,0.134,0.1387,0.1456,0.1451,0.1481,0.1604,0.1686,0.1648,0.1719,0.1814,0.1806,0.1837,0.177,0.1756,0.1647,0.1667,0.1683,0.1579,0.1497,0.1494,0.1492,0.149,0,0,0.1183,0.12,0.1223,0.1248,0.1285,0.1294,0.132,0.1297,0.1353,0.1365,0.142,0.162,0.1762,0.1582,0.1601,0.1544,0.1572,0.1491,0.1938,0.1829,0.1842,0.1902,0.177,0,0,0,0,0]},{"header":{"parameterUnit":"m.s-1","parameterCategory":2,"la1":30.2991,"la2":30.254,"lo1":-89.0895,"lo2":-89.0444,"dy":0.0017,"dx":0.0017,"nx":28,"ny":28,"refTime":"2026-02-13T09:00:00:Z","depth":"2","parameterNumber":3,"parameterNumberName":"V-component_of_CURRENTS"},"data":[0,0,0,0,0,0,0,0,0,0,0,0,0,0,0,0,0,0,0,0,0,0,0,0,0,0,0,0,0,0,0,0,0,0,0,0,0,0,0,0,0,0,0,0,0,0,0,0,0,0,0,0,0,0,0,0,0,0,-0.0275,-0.0276,0,-0.0289,-0.0289,-0.0289,-0.0327,-0.0327,-0.0328,-0.0329,-0.0405,-0.0406,-0.0407,0,0,0,0,0,0,0,0,0,0,0,0,0,-0.0262,-0.0262,-0.0275,-0.0276,-0.0276,-0.0289,-0.0289,-0.0289,-0.0327,-0.0328,-0.0328,-0.0329,-0.0404,-0.0406,-0.0407,0,0,0,0,0,0,0,0,0,0,0,0,0,-0.0271,-0.0262,-0.0275,-0.0296,-0.0298,-0.0289,-0.0289,-0.0289,-0.0326,-0.0328,-0.0329,-0.033,-0.0404,-0.0406,-0.0408,-0.0396,0,0,-0.0414,-0.0414,0,0,0,0,0,0,0,0,-0.027,-0.0271,-0.0293,-0.0294,-0.0296,-0.0307,-0.0312,-0.0328,-0.0326,-0.0316,-0.0329,-0.033,-0.0377,-0.0381,-0.0381,-0.04,-0.0403,-0.0414,-0.0415,-0.0416,-0.0416,0,0,0,0,0,0,0,-0.027,-0.0271,-0.0281,-0.0293,-0.0295,-0.0297,-0.03,-0.0315,-0.0341,-0.0317,-0.0319,-0.032,-0.0378,-0.0378,-0.0383,-0.0404,-0.0414,-0.0415,-0.0417,-0.0417,-0.048,-0.048,0,0,0,0,0,0,-0.0267,-0.027,-0.0281,-0.0282,-0.0285,-0.0296,-0.0299,-0.0303,-0.034,-0.0346,-0.0319,-0.0322,-0.0375,-0.038,-0.0386,-0.0422,-0.0416,-0.0418,-0.0419,-0.0479,-0.048,-0.048,0,0,0,0,0,0,-0.0267,-0.0268,-0.028,-0.0276,-0.0278,-0.0295,-0.0299,-0.0302,-0.0309,-0.034,-0.0348,-0.0322,-0.0376,-0.0383,-0.0419,-0.0424,-0.0418,-0.042,-0.0479,-0.0479,-0.048,-0.0465,0,0,0,0,0,0,-0.0266,-0.0268,-0.0268,-0.0276,-0.0278,-0.0278,-0.0298,-0.0302,-0.0307,-0.0311,-0.0346,-0.0354,-0.0377,-0.0416,-0.0421,-0.0426,-0.0422,-0.0478,-0.0479,-0.048,-0.0465,-0.0465,-0.0465,0,0,0,0,0,-0.0266,-0.0259,-0.0268,-0.0269,-0.0278,-0.0277,-0.0278,-0.0295,-0.0306,-0.0305,-0.0342,-0.0353,-0.0425,-0.0418,-0.0423,-0.043,-0.0478,-0.0479,-0.048,-0.0465,-0.0465,-0.0465,0,0,0,0,0,0,-0.0248,-0.0262,-0.0273,-0.027,-0.0275,-0.0284,-0.0281,-0.0291,-0.0316,-0.0325,-0.0359,-0.0369,-0.0403,-0.0417,-0.0408,-0.0452,-0.0453,-0.0455,-0.0439,-0.044,-0.044,-0.0434,-0.0423,0,0,0,0,0,-0.0244,-0.0247,-0.0258,-0.0255,-0.0257,-0.0269,-0.027,-0.0281,-0.0302,-0.0313,-0.0338,-0.0372,-0.0408,-0.0425,-0.0453,-0.0472,-0.0481,-0.048,-0.048,-0.048,-0.0481,-0.0508,-0.051,-0.0484,-0.0484,-0.0484,0,0,-0.0235,-0.0243,-0.0244,-0.0252,-0.0257,-0.0257,-0.0273,-0.0272,-0.0283,-0.0317,-0.0341,-0.0372,-0.0414,-0.0445,-0.046,-0.0459,-0.049,-0.0482,-0.0482,-0.0482,-0.0509,-0.0512,-0.0514,-0.0485,-0.0485,-0.0485,0,0,-0.0211,-0.0226,-0.0219,-0.0223,-0.0231,-0.0243,-0.0243,-0.0254,-0.0273,-0.0296,-0.0332,-0.0369,-0.0407,-0.0444,-0.0468,-0.0483,-0.0491,-0.0489,-0.0485,-0.0511,-0.0513,-0.0515,-0.0516,-0.0518,-0.0488,-0.0488,-0.0488,0,-0.0197,-0.0196,-0.0214,-0.0207,-0.0213,-0.0237,-0.0232,-0.025,-0.0274,-0.0293,-0.0305,-0.0376,-0.0409,-0.0459,-0.0472,-0.0483,-0.0491,-0.0479,-0.051,-0.0513,-0.0515,-0.0516,-0.0518,-0.0487,-0.0487,-0.0488,-0.0488,0,-0.017,-0.017,-0.0163,-0.0173,-0.0183,-0.0179,-0.021,-0.0225,-0.0252,-0.0274,-0.0323,-0.0371,-0.0414,-0.0432,-0.0461,-0.0497,-0.0494,-0.0507,-0.0506,-0.0517,-0.0517,-0.052,-0.0487,-0.0487,-0.0487,-0.0487,0,0,-0.0134,-0.0143,-0.0141,-0.0143,-0.0166,-0.0169,-0.0195,-0.0225,-0.0236,-0.0279,-0.03,-0.0377,-0.0398,-0.0427,-0.0464,-0.0493,-0.0517,-0.0507,-0.0509,-0.0501,-0.0556,-0.0543,-0.0545,-0.0536,-0.0537,-0.0538,-0.0544,0,-0.0106,-0.009,-0.0109,-0.0104,-0.0102,-0.014,-0.0158,-0.0193,-0.0227,-0.0249,-0.0318,-0.0347,-0.0398,-0.0412,-0.0456,-0.0497,-0.0527,-0.0513,-0.0553,-0.0554,-0.0536,-0.0549,-0.0528,-0.0531,-0.0547,-0.0547,-0.0548,0,-0.0074,-0.0072,-0.0061,-0.0076,-0.0079,-0.0083,-0.0121,-0.0139,-0.0189,-0.0213,-0.0265,-0.0304,-0.0364,-0.0396,-0.0483,-0.047,-0.0516,-0.055,-0.0551,-0.0547,-0.0547,-0.0528,-0.0536,-0.0553,-0.0552,-0.0552,-0.0552,0,-0.0044,-0.0039,-0.0035,-0.0038,-0.0057,-0.0068,-0.0085,-0.0127,-0.013,-0.0184,-0.0177,-0.0267,-0.0281,-0.0372,-0.0447,-0.0466,-0.0522,-0.0554,-0.0586,-0.0584,-0.0579,-0.0575,-0.0618,-0.0618,-0.0618,-0.0618,-0.0618,0,-0.0011,-0.0005,-0.0017,-0.0011,-0.0003,-0.0035,-0.0031,-0.0061,-0.0076,-0.0058,-0.0149,-0.0135,-0.0275,-0.0322,-0.042,-0.0499,-0.0503,-0.0585,-0.0591,-0.0571,-0.0567,-0.0601,-0.0599,-0.0618,-0.0618,-0.0618,-0.0618,0,0.0022,0.0015,0.0026,0.0014,0.0014,0.0017,0.0023,0.0037,0.0009,0.0036,0.0029,-0.0026,-0.009,-0.0219,-0.0337,-0.0435,-0.0528,-0.0556,-0.0509,-0.0511,-0.0582,-0.0579,-0.0605,-0.0605,-0.0605,-0.0605,-0.0604,0,0.0041,0.005,0.0053,0.0072,0.0071,0.0079,0.0097,0.0077,0.0107,0.0118,0.0152,0.0101,0.0084,-0.0084,-0.0273,-0.044,-0.0479,-0.0525,-0.0575,-0.058,-0.0584,-0.0581,-0.0579,-0.0554,-0.0554,-0.0553,-0.0553,0,0.0077,0.0076,0.0088,0.013,0.0155,0.0186,0.0216,0.0261,0.026,0.0294,0.0353,0.0344,0.0176,0.0017,-0.0223,-0.0344,-0.0506,-0.0521,-0.0539,-0.056,-0.0533,-0.0536,-0.0535,-0.0549,-0.0549,-0.0549,-0.055,-0.055,0.0107,0.0127,0.0153,0.0193,0.0233,0.0304,0.0349,0.0401,0.0471,0.0536,0.0517,0.0514,0.0295,0.0008,-0.0208,-0.0445,-0.0459,-0.0547,-0.0549,-0.055,-0.0543,-0.0517,-0.0527,-0.0527,-0.0527,-0.0527,-0.0528,0,0.0151,0.0177,0.0219,0.0275,0.034,0.0348,0.044,0.0492,0.0597,0.0657,0.0694,0.053,0.0332,0.0089,-0.0258,-0.0474,-0.0507,-0.0534,-0.0534,-0.0537,-0.0539,-0.0532,-0.0513,-0.0513,-0.0513,-0.0514,0,0,0.0178,0.0228,0.0249,0.0359,0.041,0.0503,0.0567,0.0644,0.0707,0.0781,0.0792,0.0735,0.0432,0.0192,-0.0113,-0.0306,-0.0369,-0.0344,-0.0335,-0.0303,-0.0303,-0.0529,-0.0518,0,0,0,0,0]}],[{"header":{"parameterUnit":"m.s-1","parameterCategory":2,"la1":30.2991,"la2":30.254,"lo1":-89.0895,"lo2":-89.0444,"dy":0.0017,"dx":0.0017,"nx":28,"ny":28,"refTime":"2026-02-13T09:00:00:Z","depth":"4","parameterNumber":2,"parameterNumberName":"U-component_of_CURRENTS"},"data":[0,0,0,0,0,0,0,0,0,0,0,0,0,0,0,0,0,0,0,0,0,0,0,0,0,0,0,0,0,0,0,0,0,0,0,0,0,0,0,0,0,0,0,0,0,0,0,0,0,0,0,0,0,0,0,0,0,0,0.0891,0.0892,0,0.0921,0.0921,0.0921,0.0943,0.0943,0.0943,0.0944,0.0978,0.0979,0.0979,0,0,0,0,0,0,0,0,0,0,0,0,0,0.0817,0.0818,0.0891,0.0892,0.0892,0.0921,0.0921,0.0921,0.0943,0.0943,0.0944,0.0944,0.0978,0.0979,0.0979,0,0,0,0,0,0,0,0,0,0,0,0,0,0.0846,0.0819,0.0891,0.0908,0.091,0.0921,0.0921,0.0921,0.0943,0.0943,0.0944,0.0944,0.0978,0.0979,0.0979,0.0972,0,0,0.0982,0.0982,0,0,0,0,0,0,0,0,0.0844,0.0848,0.0905,0.0907,0.0909,0.0931,0.0908,0.0939,0.0942,0.0928,0.0944,0.0945,0.0964,0.0966,0.0967,0.0974,0.0975,0.0982,0.0982,0.0983,0.0983,0,0,0,0,0,0,0,0.0842,0.0847,0.09,0.0906,0.0908,0.0902,0.0907,0.0913,0.094,0.0929,0.0931,0.0938,0.0965,0.0966,0.0968,0.0976,0.0982,0.0983,0.0983,0.0983,0.1035,0.1036,0,0,0,0,0,0,0.0845,0.0845,0.09,0.0902,0.088,0.0903,0.0909,0.0921,0.094,0.0944,0.0938,0.0939,0.0964,0.0967,0.0969,0.1022,0.0983,0.0983,0.0984,0.1034,0.1035,0.1036,0,0,0,0,0,0,0.0843,0.085,0.0898,0.0875,0.0882,0.0905,0.0918,0.0922,0.0942,0.0947,0.0951,0.0958,0.0965,0.0968,0.0989,0.1022,0.0984,0.0985,0.1033,0.1035,0.1036,0.109,0,0,0,0,0,0,0.0841,0.0849,0.0866,0.0876,0.0883,0.092,0.0918,0.0922,0.0946,0.0948,0.0965,0.0968,0.0965,0.0988,0.099,0.1022,0.0985,0.1032,0.1034,0.1035,0.1087,0.1093,0.1098,0,0,0,0,0,0.0838,0.0857,0.0867,0.0874,0.0904,0.0921,0.0924,0.094,0.0946,0.0959,0.0968,0.0968,0.1,0.0989,0.0991,0.1024,0.1031,0.1033,0.1035,0.1085,0.1092,0.1098,0,0,0,0,0,0,0.0833,0.0862,0.0872,0.09,0.0917,0.0926,0.0943,0.095,0.0967,0.0975,0.0975,0.0978,0.1011,0.1006,0.0993,0.1043,0.1018,0.102,0.1055,0.1061,0.1067,0.1062,0.0986,0,0,0,0,0,0.084,0.0864,0.0885,0.0908,0.092,0.0934,0.0946,0.0957,0.097,0.0979,0.099,0.1002,0.1017,0.103,0.1038,0.1062,0.1065,0.1086,0.1091,0.1096,0.1093,0.1127,0.1136,0.1043,0.1043,0.1043,0,0,0.0843,0.0864,0.0878,0.0909,0.0924,0.0939,0.0943,0.0969,0.0985,0.0979,0.1009,0.1021,0.1026,0.1056,0.1071,0.106,0.1125,0.1099,0.1103,0.1097,0.113,0.114,0.1148,0.1044,0.1044,0.1044,0,0,0.0852,0.0883,0.0902,0.0919,0.095,0.0958,0.097,0.0992,0.101,0.1035,0.1039,0.1067,0.1088,0.11,0.1108,0.1146,0.1152,0.1158,0.1187,0.1221,0.1229,0.1236,0.1258,0.1266,0.1164,0.1164,0.1164,0,0.0854,0.0881,0.0909,0.0929,0.0944,0.0968,0.0983,0.1004,0.1029,0.1047,0.1054,0.11,0.1108,0.1144,0.1161,0.1161,0.1177,0.1164,0.1229,0.1236,0.1242,0.1263,0.1272,0.1167,0.1166,0.1166,0.1166,0,0.087,0.0895,0.0909,0.0942,0.0963,0.0982,0.1011,0.1039,0.1066,0.1084,0.1135,0.1151,0.1181,0.1195,0.119,0.1244,0.1241,0.1232,0.1214,0.1255,0.1274,0.1282,0.1171,0.117,0.1169,0.1168,0,0,0.0853,0.0908,0.0912,0.093,0.0971,0.0986,0.1025,0.1061,0.1092,0.1134,0.1176,0.1213,0.1237,0.1245,0.1258,0.1286,0.1349,0.1284,0.1285,0.1308,0.1426,0.1366,0.1368,0.1361,0.1363,0.1364,0.1424,0,0.0851,0.0883,0.0915,0.0944,0.0959,0.1001,0.1031,0.1073,0.1116,0.1165,0.1207,0.1252,0.1253,0.1284,0.1316,0.134,0.1372,0.1333,0.1379,0.138,0.1324,0.1376,0.1369,0.143,0.1431,0.1433,0.1434,0,0.0845,0.0868,0.0895,0.0945,0.0957,0.0984,0.1043,0.1079,0.1152,0.1191,0.1253,0.1289,0.135,0.1343,0.1415,0.1396,0.1417,0.1429,0.1432,0.1359,0.1335,0.1377,0.1448,0.1447,0.1446,0.1445,0.1444,0,0.0802,0.0852,0.0873,0.0889,0.0948,0.0979,0.1019,0.1088,0.1125,0.1221,0.1264,0.1337,0.139,0.1429,0.1475,0.1455,0.1547,0.1518,0.1481,0.1476,0.1488,0.1479,0.1566,0.1566,0.1566,0.1566,0.1566,0,0.0773,0.0792,0.086,0.0869,0.0904,0.0962,0.1012,0.1067,0.1146,0.12,0.1283,0.134,0.1419,0.1483,0.1501,0.1526,0.1576,0.1493,0.1492,0.1509,0.1503,0.1494,0.1484,0.1568,0.1568,0.1567,0.1567,0,0.0717,0.0761,0.0788,0.0856,0.0883,0.0913,0.1001,0.1036,0.1126,0.1205,0.1243,0.1359,0.145,0.1515,0.1588,0.1558,0.1583,0.1579,0.1605,0.1604,0.1479,0.1472,0.1527,0.1525,0.1524,0.1523,0.1522,0,0.0691,0.0698,0.0768,0.079,0.0826,0.0883,0.0918,0.1014,0.1059,0.121,0.1243,0.1371,0.1444,0.1498,0.1567,0.1607,0.1592,0.1587,0.1514,0.1483,0.1477,0.1472,0.1467,0.152,0.1519,0.1519,0.1519,0,0.0632,0.0663,0.0685,0.0729,0.0772,0.0819,0.089,0.0915,0.1039,0.1125,0.1225,0.1294,0.1398,0.1463,0.1519,0.1538,0.1577,0.1573,0.1574,0.1505,0.1475,0.147,0.1466,0.1514,0.1515,0.1515,0.1515,0,0.0587,0.059,0.0624,0.0662,0.0715,0.0758,0.08,0.0872,0.093,0.11,0.1134,0.1279,0.1387,0.143,0.1479,0.1503,0.147,0.1409,0.1418,0.1424,0.1366,0.1311,0.1309,0,0,0,0,0,0.0537,0.0538,0.056,0.0603,0.0657,0.0697,0.0783,0.083,0.0953,0.0995,0.1063,0.1161,0.1258,0.1327,0.1333,0.143,0.1469,0.1429,0.14,0.1489,0.1494,0.1437,0,0,0,0,0,0,0.0501,0.0513,0.0531,0.0553,0.058,0.0637,0.0694,0.0775,0.0805,0.0934,0.0991,0.1091,0.1196,0.1246,0.131,0.1332,0.1291,0.1514,0.1511,0.1486,0.1491,0.1495,0.1438,0,0,0,0,0]},{"header":{"parameterUnit":"m.s-1","parameterCategory":2,"la1":30.2991,"la2":30.254,"lo1":-89.0895,"lo2":-89.0444,"dy":0.0017,"dx":0.0017,"nx":28,"ny":28,"refTime":"2026-02-13T09:00:00:Z","depth":"4","parameterNumber":3,"parameterNumberName":"V-component_of_CURRENTS"},"data":[0,0,0,0,0,0,0,0,0,0,0,0,0,0,0,0,0,0,0,0,0,0,0,0,0,0,0,0,0,0,0,0,0,0,0,0,0,0,0,0,0,0,0,0,0,0,0,0,0,0,0,0,0,0,0,0,0,0,-0.0136,-0.0136,0,-0.0133,-0.0133,-0.0133,-0.0145,-0.0145,-0.0146,-0.0146,-0.0163,-0.0163,-0.0163,0,0,0,0,0,0,0,0,0,0,0,0,0,-0.0132,-0.0132,-0.0136,-0.0136,-0.0136,-0.0133,-0.0133,-0.0133,-0.0145,-0.0145,-0.0146,-0.0146,-0.0163,-0.0163,-0.0163,0,0,0,0,0,0,0,0,0,0,0,0,0,-0.0132,-0.0132,-0.0136,-0.0141,-0.0142,-0.0133,-0.0133,-0.0133,-0.0145,-0.0145,-0.0146,-0.0146,-0.0163,-0.0163,-0.0163,-0.0153,0,0,-0.0163,-0.0164,0,0,0,0,0,0,0,0,-0.0132,-0.0132,-0.0141,-0.0141,-0.0142,-0.014,-0.0138,-0.0141,-0.0145,-0.0143,-0.0146,-0.0147,-0.0157,-0.0158,-0.0155,-0.0153,-0.0154,-0.0164,-0.0164,-0.0164,-0.0164,0,0,0,0,0,0,0,-0.0132,-0.0132,-0.0134,-0.0141,-0.0141,-0.0138,-0.0139,-0.0139,-0.0147,-0.0143,-0.0144,-0.0145,-0.0157,-0.0155,-0.0156,-0.0154,-0.0164,-0.0164,-0.0164,-0.0164,-0.013,-0.0129,0,0,0,0,0,0,-0.0133,-0.0132,-0.0134,-0.0134,-0.0138,-0.0138,-0.0139,-0.014,-0.0147,-0.0148,-0.0144,-0.0145,-0.0154,-0.0155,-0.0156,-0.0132,-0.0164,-0.0164,-0.0164,-0.0131,-0.013,-0.0129,0,0,0,0,0,0,-0.0133,-0.0133,-0.0134,-0.0133,-0.0133,-0.0138,-0.0139,-0.014,-0.0143,-0.0147,-0.0149,-0.0147,-0.0155,-0.0156,-0.0145,-0.0134,-0.0164,-0.0164,-0.0132,-0.0131,-0.0129,-0.0092,0,0,0,0,0,0,-0.0133,-0.0133,-0.0137,-0.0133,-0.0134,-0.0128,-0.0138,-0.0139,-0.0142,-0.0143,-0.015,-0.0152,-0.0155,-0.0145,-0.0146,-0.0134,-0.0164,-0.0133,-0.0131,-0.013,-0.0095,-0.009,-0.0085,0,0,0,0,0,-0.0133,-0.0129,-0.0137,-0.0137,-0.0137,-0.0128,-0.0128,-0.0132,-0.0142,-0.0138,-0.0135,-0.0152,-0.0134,-0.0144,-0.0145,-0.0134,-0.0134,-0.0132,-0.013,-0.0097,-0.0091,-0.0085,0,0,0,0,0,0,-0.0124,-0.013,-0.0138,-0.0136,-0.0134,-0.013,-0.0128,-0.0133,-0.0129,-0.0131,-0.0139,-0.0139,-0.0127,-0.0132,-0.0144,-0.0117,-0.0137,-0.0135,-0.0112,-0.0106,-0.0102,-0.0088,-0.0164,0,0,0,0,0,-0.0125,-0.0127,-0.0129,-0.0127,-0.0127,-0.013,-0.0129,-0.0131,-0.0126,-0.0126,-0.0129,-0.0126,-0.0117,-0.0114,-0.011,-0.0095,-0.0121,-0.0088,-0.0083,-0.0079,-0.0067,-0.0095,-0.0093,-0.0121,-0.0121,-0.0121,0,0,-0.0121,-0.0125,-0.0126,-0.0126,-0.0127,-0.0109,-0.013,-0.0126,-0.0105,-0.0128,-0.0105,-0.0113,-0.0109,-0.009,-0.0085,-0.0094,-0.0087,-0.0077,-0.0073,-0.0063,-0.0093,-0.009,-0.0088,-0.012,-0.012,-0.012,0,0,-0.0102,-0.0117,-0.0109,-0.0104,-0.0105,-0.01,-0.0099,-0.0097,-0.0093,-0.0076,-0.0082,-0.0077,-0.007,-0.0057,-0.0051,-0.0018,-0.0064,-0.0025,0.0012,-0.0015,-0.0014,-0.0012,-0.0056,-0.0059,-0.002,-0.002,-0.002,0,-0.0096,-0.0084,-0.0103,-0.0088,-0.0074,-0.0093,-0.0065,-0.0061,-0.0053,-0.0042,-0.0064,-0.0043,-0.0048,-0.0011,0.0001,-0.0007,-0.0041,-0.0011,-0.0011,-0.001,-0.0009,-0.0054,-0.0058,-0.0018,-0.0018,-0.0018,-0.0019,0,-0.0066,-0.0055,-0.0047,-0.0031,-0.002,-0.0002,0.0004,0.0015,0.001,0.0012,0.0031,0.0022,0.0033,0.0031,0.0027,0.004,0.0006,-0.0006,-0.0028,-0.0004,-0.0053,-0.0058,-0.0015,-0.0016,-0.0016,-0.0017,0,0,-0.0048,-0.0028,-0.0024,-0.0,0.0013,0.0032,0.0064,0.0093,0.0114,0.0104,0.0127,0.0139,0.0111,0.0118,0.0103,0.0085,0.0052,0.0043,0.004,-0.0006,-0.003,-0.0053,-0.0061,0.0029,0.0029,0.0029,-0.0072,0,-0.0013,0.0032,0.0033,0.009,0.0119,0.0121,0.0157,0.0176,0.0174,0.0185,0.0169,0.0177,0.0151,0.0145,0.0126,0.007,0.0044,0.008,-0.004,-0.0044,-0.0072,-0.0064,0.0028,-0.0076,-0.0077,-0.0078,-0.0078,0,0.0023,0.0052,0.0109,0.0162,0.0175,0.0205,0.0255,0.0281,0.0287,0.0279,0.0272,0.0241,0.0225,0.0187,0.0108,0.0124,0.0056,0.0008,0.0002,-0.0031,-0.0074,-0.01,-0.0087,-0.0086,-0.0086,-0.0085,-0.0085,0,0.0056,0.011,0.016,0.0177,0.0229,0.026,0.0287,0.031,0.0333,0.0327,0.0321,0.0292,0.026,0.0188,0.008,0.0086,-0.0032,-0.0037,-0.0119,-0.0123,-0.0091,-0.0091,-0.0093,-0.0093,-0.0093,-0.0093,-0.0092,0,0.0099,0.0141,0.018,0.0208,0.0278,0.0296,0.0356,0.0372,0.0384,0.04,0.0362,0.0348,0.0254,0.0172,0.0083,-0.0041,-0.0036,-0.0111,-0.0144,-0.0075,-0.0071,-0.0096,-0.0094,-0.0097,-0.0096,-0.0095,-0.0094,0,0.0128,0.015,0.0212,0.0271,0.0293,0.034,0.0396,0.0428,0.0431,0.0442,0.0436,0.0375,0.0262,0.0157,0.002,-0.0044,-0.0153,-0.0199,-0.0132,-0.0162,-0.0227,-0.0223,-0.0289,-0.029,-0.0291,-0.0293,-0.0293,0,0.0147,0.0179,0.0251,0.0285,0.0312,0.0377,0.0418,0.0449,0.0467,0.0452,0.0447,0.0353,0.0294,0.0087,-0.0026,-0.0198,-0.0216,-0.0272,-0.0222,-0.0217,-0.0244,-0.0238,-0.0232,-0.0296,-0.0296,-0.0296,-0.0297,0,0.0183,0.0201,0.0249,0.0313,0.0363,0.0423,0.047,0.0489,0.0506,0.051,0.0452,0.0355,0.0221,0.0076,-0.0068,-0.0185,-0.0228,-0.0285,-0.0282,-0.0236,-0.0227,-0.025,-0.0243,-0.0301,-0.03,-0.03,-0.03,0,0.0202,0.0234,0.028,0.0337,0.0395,0.0435,0.0474,0.0487,0.0507,0.0488,0.0459,0.0334,0.0262,0.0078,-0.0053,-0.0173,-0.0188,-0.0203,-0.0205,-0.0201,-0.0139,-0.0113,-0.0178,0,0,0,0,0,0.0215,0.0239,0.0296,0.0351,0.0404,0.043,0.0487,0.0515,0.0529,0.0493,0.0481,0.0359,0.0171,0.0088,-0.0036,-0.0081,-0.0216,-0.0229,-0.0235,-0.0326,-0.032,-0.0264,0,0,0,0,0,0,0.022,0.0267,0.029,0.0339,0.0371,0.0425,0.046,0.0478,0.0461,0.046,0.0361,0.0326,0.0139,0.0229,-0.0045,-0.0081,-0.0099,-0.0315,-0.0317,-0.0329,-0.0324,-0.032,-0.026,0,0,0,0,0]}]]